Palmer, AK

6:10 PM AKDT on August 21, 2017 (GMT -0800)
Palmer Municipal

Weather History for PAAQ - October, 2012

Change the Weather History Date:

Monday, October 22, 2012

  Actual Average Record
Temperature  
Mean Temperature 20 °F -  
Max Temperature 28 °F 38 °F 62 °F (1957)
Min Temperature 12 °F 22 °F 3 °F (1996)
Degree Days  
Heating Degree Days 45    
Moisture  
Dew Point 10 °F    
Average Humidity 68    
Maximum Humidity 81    
Minimum Humidity 47    
Precipitation  
Precipitation 0.00 in - - ()
Sea Level Pressure  
Sea Level Pressure 30.27 in    
Wind  
Wind Speed 1 mph (SE)    
Max Wind Speed 5 mph    
Max Gust Speed -    
Visibility 10 miles    
Events      
Averages and records for this station are not official NWS values.
T = Trace of Precipitation, MM = Missing Value Source: NWS Daily Summary

Daily Weather History Graph

Daily Weather History Graph

Search for Another Location

Airport or City:

Trip Planner

Search our weather history database for the weather conditions in past years. The results will help you decide how hot, cold, wet, or windy it might be!

Date:

Astronomy

Oct. 22, 2012 Rise Set
Actual Time 9:00 AM AKDT 6:19 PM AKDT
Civil Twilight 8:14 AM AKDT 7:05 PM AKDT
Nautical Twilight 7:23 AM AKDT 7:56 PM AKDT
Astronomical Twilight 6:32 AM AKDT 8:47 PM AKDT
Moon 4:16 PM AKDT 12:01 AM AKDT
Length of Visible Light 10h 51m
Length of Day
9h 19m
First Quarter, 58% of the Moon is Illuminated
Oct 22
First Quarter
Oct 29
Full
Nov 6
Last Quarter
Nov 13
New
Nov 20
First Quarter

Hourly Weather History & Observations

Time (AKDT) Temp. Windchill Dew Point Humidity Pressure Visibility Wind Dir Wind Speed Gust Speed Precip Events Conditions
12:53 AM 18.0 °F - 12.0 °F 78% 30.30 in 10.0 mi Calm Calm - N/A   Clear
1:53 AM 19.0 °F - 10.9 °F 71% 30.29 in 10.0 mi Calm Calm - N/A   Clear
2:53 AM 18.0 °F - 10.9 °F 74% 30.28 in 10.0 mi Calm Calm - N/A   Clear
3:53 AM 18.0 °F 11.1 °F 10.9 °F 74% 30.27 in 10.0 mi NE 4.6 mph - N/A   Clear
4:53 AM 16.0 °F - 9.0 °F 74% 30.27 in 10.0 mi Calm Calm - N/A   Clear
5:53 AM 15.1 °F - 8.1 °F 74% 30.28 in 10.0 mi Calm Calm - N/A   Clear
6:53 AM 12.9 °F - 7.0 °F 77% 30.28 in 10.0 mi Calm Calm - N/A   Clear
7:53 AM 14.0 °F - 8.1 °F 77% 30.29 in 10.0 mi Calm Calm - N/A   Clear
8:53 AM 12.9 °F - 8.1 °F 81% 30.29 in 10.0 mi Calm Calm - N/A   Clear
9:53 AM 14.0 °F - 9.0 °F 80% 30.28 in 10.0 mi Calm Calm - N/A   Clear
10:53 AM 19.0 °F - 12.9 °F 77% 30.28 in 10.0 mi Calm Calm - N/A   Clear
11:53 AM 21.9 °F - 12.9 °F 68% 30.28 in 10.0 mi Calm Calm - N/A   Clear
12:53 PM 25.0 °F - 12.0 °F 58% 30.28 in 10.0 mi Calm Calm - N/A   Clear
1:53 PM 28.0 °F 24.2 °F 10.0 °F 47% 30.27 in 10.0 mi South 3.5 mph - N/A   Clear
2:53 PM 28.0 °F 22.8 °F 10.9 °F 49% 30.26 in 10.0 mi South 4.6 mph - N/A   Clear
3:53 PM 28.0 °F - 10.0 °F 47% 30.25 in 10.0 mi Calm Calm - N/A   Clear
4:53 PM 28.0 °F 22.8 °F 10.9 °F 49% 30.25 in 10.0 mi SSE 4.6 mph - N/A   Clear
5:53 PM 25.0 °F 20.7 °F 12.0 °F 58% 30.25 in 10.0 mi SSE 3.5 mph - N/A   Clear
6:53 PM 23.0 °F - 12.0 °F 63% 30.25 in 10.0 mi Calm Calm - N/A   Clear
8:53 PM 19.0 °F - 10.0 °F 68% 30.25 in 10.0 mi Calm Calm - N/A   Clear
9:53 PM 16.0 °F - 8.1 °F 71% 30.26 in 10.0 mi Calm Calm - N/A   Clear
10:53 PM 16.0 °F - 8.1 °F 71% 30.25 in 10.0 mi Calm Calm - N/A   Clear
11:53 PM 15.1 °F 9.4 °F 9.0 °F 77% 30.26 in 10.0 mi North 3.5 mph - N/A   Clear